Wind_Speed
30 30 31 32 33 34 35 37 38 39 39 40 40 40 40 40 40 40 41 42 42 44 45 47 48 49 51 52 54 55 56 57 58 59 59 59 59 59 58 58 57 56 56 56
33 33 34 35 35 35 36 37 39 40 40 40 41 41 42 43 43 43 43 44 45 45 47 49 51 52 53 54 55 56 57 57 58 57 57 57 57 57 56 55 54 53 53 53
35 36 37 37 37 37 38 38 39 40 40 41 41 41 40 41 41 41 42 43 45 46 48 49 51 54 55 55 55 55 55 55 55 55 55 54 54 53 52 51 50 50 50 50
34 35 37 37 37 38 38 38 38 38 38 38 38 37 38 39 40 42 44 45 46 47 49 51 52 52 53 53 53 53 53 52 52 51 51 51 50 49 48 48 48 49 49 49
31 33 34 34 34 34 34 35 36 37 37 38 38 38 38 39 39 40 42 43 45 47 48 50 50 51 51 51 50 50 49 49 48 47 47 47 46 46 46 46 47 47 48 48
27 28 29 29 29 29 31 32 32 34 35 35 34 35 35 36 38 39 41 43 44 45 46 47 48 48 48 47 46 46 45 44 44 44 43 43 44 44 44 45 46 46 46 46
23 24 24 24 24 25 26 27 28 30 31 32 33 34 34 35 37 38 40 41 42 43 43 44 44 44 43 42 42 41 40 40 40 41 41 41 42 43 44 45 45 45 44 43
19 20 20 21 22 22 23 23 24 26 28 29 31 32 33 34 35 36 37 38 38 39 40 39 39 38 37 37 36 36 36 37 37 38 39 40 41 42 43 43 42 41 40 38
16 16 16 17 18 19 20 21 22 24 25 26 28 29 30 31 32 33 33 34 34 34 34 34 33 33 33 33 33 34 34 35 37 38 39 40 40 41 40 39 38 36 34 32
14 15 15 16 16 17 18 19 20 21 22 23 24 25 26 27 28 28 29 29 29 29 28 28 29 29 30 30 31 33 34 35 37 38 39 39 39 38 36 34 32 29 26 24
13 14 15 16 16 16 17 18 19 19 20 21 22 23 24 24 25 24 24 24 24 24 24 25 25 26 27 29 31 33 35 36 37 37 37 35 34 32 29 27 24 22 19 17
13 13 14 15 15 16 17 17 18 18 19 19 20 20 20 20 20 19 19 19 20 20 21 22 23 25 27 30 32 34 35 35 34 33 31 29 27 25 22 20 18 16 14 12
12 12 13 13 14 15 15 15 16 16 16 16 16 16 16 15 14 14 15 15 16 17 19 21 23 26 28 31 32 33 33 32 30 28 25 22 20 19 16 14 13 11 9 8
11 11 11 12 12 12 13 13 12 12 12 12 11 11 11 10 10 10 11 12 14 16 19 22 25 27 29 30 31 31 29 26 24 21 19 17 15 13 12 10 9 8 7 6
10 10 10 10 9 9 9 8 8 8 8 8 7 7 6 6 6 7 9 11 14 17 21 24 26 28 29 29 28 26 24 21 19 16 14 13 11 10 9 9 8 8 7 7
8 8 8 8 7 7 6 6 6 6 5 4 3 3 3 3 5 7 10 13 16 19 22 24 26 27 26 26 25 23 20 17 15 13 11 10 10 10 10 10 9 9 10 10
7 6 6 6 5 4 3 3 2 2 1 1 0 1 2 4 6 8 11 14 18 20 23 24 25 25 24 23 22 19 17 15 13 11 10 10 10 10 10 10 11 11 12 13
6 6 5 4 2 1 1 0 1 2 2 2 3 4 4 6 8 10 13 16 19 21 22 24 24 24 22 21 20 18 16 14 13 11 11 11 11 11 12 12 12 13 14 14
6 5 4 3 2 2 1 1 2 3 4 5 6 6 6 7 9 12 15 18 20 21 22 23 23 22 21 20 19 18 16 15 14 13 12 12 13 13 13 14 14 15 15 15
5 3 3 3 2 2 2 2 3 4 6 7 7 7 8 9 11 14 16 18 20 21 22 22 22 22 21 20 20 19 18 17 16 15 15 15 15 16 15 15 15 15 15 15
4 2 1 2 3 3 3 4 5 7 8 8 8 8 9 10 13 15 17 19 20 21 22 22 23 22 22 21 21 20 20 19 19 18 17 17 18 18 17 17 16 16 15 15
3 2 2 2 3 3 4 5 6 8 9 9 8 8 9 11 13 15 17 20 21 22 23 23 23 23 23 22 22 21 21 21 20 20 19 19 19 19 19 18 17 16 15 15
4 3 3 3 3 4 5 6 7 8 9 9 9 9 9 11 13 15 18 20 21 22 23 23 23 23 23 23 23 23 22 22 22 21 20 20 19 19 19 18 18 17 16 15
5 4 4 4 5 6 7 8 9 10 10 10 9 9 9 11 13 15 17 20 21 22 23 23 24 24 24 24 24 24 24 23 23 23 22 21 20 20 19 19 18 17 16 16
7 6 6 5 6 7 8 9 10 11 10 10 9 9 9 10 12 14 16 18 20 21 22 24 25 25 26 26 26 25 25 25 24 24 23 23 22 21 21 20 19 19 18 17
8 7 7 7 8 9 9 10 11 12 11 11 10 9 9 10 11 13 15 17 19 21 22 23 24 25 26 27 28 28 28 28 27 26 25 25 24 23 23 22 22 21 20 20
10 8 8 8 9 9 10 11 13 13 12 12 11 10 10 9 10 11 14 16 18 19 21 22 23 24 25 26 27 28 29 29 29 29 28 28 27 26 25 25 25 24 23 22
Wind_Direction
248 246 245 245 246 247 248 249 250 249 250 251 252 254 258 260 263 265 267 269 272 275 278 281 283 286 289 291 293 294 296 296 297 297 298 297 298 298 297 296 296 295 294 293
252 251 250 248 247 250 252 254 255 255 254 255 256 256 258 261 264 266 269 273 275 278 281 285 287 290 293 295 296 297 297 297 297 297 297 297 297 297 296 296 295 294 294 294
255 254 254 253 252 254 256 258 260 260 261 261 262 264 265 267 269 272 274 278 281 284 287 289 292 295 296 296 296 296 296 296 296 296 296 296 296 296 295 295 294 293 293 293
261 260 257 257 256 258 260 262 264 267 269 270 270 271 272 272 273 276 279 282 284 287 291 293 295 295 296 296 296 296 295 295 296 296 296 296 296 295 295 294 293 293 294 294
264 266 267 266 265 265 264 266 268 270 272 273 275 275 275 275 277 280 282 285 288 290 293 294 295 295 295 295 295 295 296 296 296 296 296 296 295 295 295 294 295 295 295 295
268 269 270 269 268 267 267 266 267 268 269 270 272 273 275 277 279 282 284 286 288 290 292 293 293 294 294 295 295 296 296 296 296 296 296 296 296 296 296 296 296 296 295 295
269 270 271 270 270 269 267 266 265 265 267 268 269 272 274 276 279 282 284 286 288 290 291 292 293 294 295 296 297 297 297 297 297 297 297 297 297 297 297 297 297 297 297 297
270 271 270 270 269 266 267 266 265 266 267 268 269 271 273 276 280 283 285 287 289 290 291 293 294 295 296 297 298 298 299 299 299 299 299 299 299 299 299 299 299 298 298 297
267 267 268 266 264 265 266 267 266 267 268 269 271 273 276 279 283 285 286 288 290 292 293 294 295 297 298 299 300 301 301 302 302 302 302 302 302 301 301 301 300 299 299 299
267 265 264 266 268 266 265 266 266 268 270 273 274 276 279 281 284 286 287 289 291 293 295 296 298 299 301 302 303 304 305 305 305 305 305 304 304 304 304 303 303 302 302 301
268 268 268 269 268 267 267 267 268 270 271 273 275 277 280 283 285 287 289 292 295 297 299 300 302 304 306 307 307 308 308 308 308 308 307 307 307 307 307 307 307 307 306 305
274 270 266 267 269 270 271 270 270 271 272 274 277 279 281 284 286 289 293 296 298 301 304 306 308 310 311 312 312 312 312 312 312 311 311 311 312 313 313 314 315 315 314 314
279 276 273 272 273 274 274 272 272 272 273 275 277 279 283 286 290 294 297 301 306 310 313 315 316 316 317 317 317 317 318 318 318 317 318 319 320 321 323 325 328 329 332 334
282 280 277 277 279 280 277 274 272 270 271 276 279 281 285 289 295 300 307 314 319 322 322 323 322 322 322 323 324 324 325 325 326 327 328 330 333 336 340 344 348 354 2 11
287 284 281 282 285 286 281 274 267 268 273 278 281 283 289 298 308 318 327 331 332 332 330 329 329 330 330 331 332 333 334 335 337 339 343 347 353 1 7 11 16 23 35 51
294 291 287 285 284 287 282 274 270 275 276 279 279 285 306 329 342 347 347 345 343 340 338 338 339 340 340 341 341 342 344 347 350 355 2 11 20 27 28 31 39 48 61 72
296 298 298 295 291 291 287 281 274 255 240 243 188 80 46 27 15 6 359 354 351 349 350 350 350 350 351 351 352 354 358 3 8 16 26 33 39 41 42 48 58 66 74 80
297 301 303 301 302 303 329 19 147 134 113 112 109 91 68 46 29 16 8 4 1 1 1 1 1 2 3 6 9 12 17 23 30 37 44 49 52 54 56 64 70 75 80 83
292 294 291 278 262 244 206 134 128 119 116 114 107 91 71 51 34 23 17 13 11 11 11 12 13 14 17 20 23 27 32 37 44 50 56 59 61 64 68 73 76 80 83 85
285 291 280 246 221 192 163 137 131 126 123 117 106 91 73 53 39 31 25 22 21 21 21 22 23 25 29 32 35 39 44 50 56 61 65 67 68 70 74 77 79 83 84 85
271 270 226 184 175 171 153 138 135 130 125 118 107 92 74 57 46 39 33 30 30 30 30 31 32 35 38 41 44 48 53 57 61 66 69 71 72 73 75 77 80 82 83 84
241 221 179 171 170 162 152 144 143 137 132 124 111 94 75 62 52 46 41 39 39 38 38 38 39 42 45 48 51 54 57 60 63 67 70 72 73 73 74 76 78 80 81 81
223 206 189 182 174 165 159 153 149 144 138 129 115 97 81 69 59 53 48 46 45 43 42 42 44 48 51 53 55 58 60 62 64 67 70 72 73 73 73 73 74 75 76 78
210 200 194 186 174 165 160 156 151 147 142 133 120 104 89 76 66 59 55 52 49 48 48 49 51 54 56 57 58 60 62 63 65 67 69 71 72 72 71 71 71 72 74 76
204 198 190 182 173 165 161 158 155 152 147 139 128 114 100 85 73 65 61 57 55 54 55 56 57 58 60 60 61 62 63 64 65 67 69 70 71 71 71 71 72 73 74 76
197 191 186 180 173 168 167 167 163 158 153 148 137 125 111 96 83 74 68 65 63 61 61 62 62 63 64 64 65 65 66 66 67 68 69 70 71 72 71 71 72 73 74 76
194 191 187 183 180 177 174 172 168 164 161 156 147 135 123 109 96 85 77 72 69 67 66 66 66 66 66 66 66 66 67 67 67 68 68 69 70 71 71 71 72 73 74 76
Height
5734 5736 5738 5740 5742 5744 5747 5748 5751 5753 5754 5755 5756 5757 5757 5757 5757 5757 5757 5757 5756 5755 5754 5753 5751 5749 5746 5743 5740 5736 5732 5727 5723 5718 5713 5708 5703 5698 5693 5688 5683 5678 5673 5668
5726 5727 5729 5732 5734 5736 5738 5740 5742 5744 5746 5747 5747 5748 5748 5748 5748 5747 5747 5746 5746 5745 5743 5741 5739 5736 5733 5730 5726 5722 5718 5714 5709 5704 5699 5694 5688 5683 5678 5673 5668 5664 5659 5655
5718 5719 5721 5724 5727 5728 5730 5731 5733 5735 5737 5737 5737 5738 5738 5738 5738 5737 5736 5736 5735 5733 5731 5729 5726 5723 5720 5716 5713 5708 5704 5699 5695 5690 5685 5679 5674 5669 5665 5660 5655 5651 5647 5642
5710 5712 5714 5718 5718 5720 5721 5722 5724 5725 5726 5727 5728 5728 5728 5728 5727 5727 5726 5725 5723 5721 5719 5716 5713 5710 5707 5703 5699 5695 5690 5685 5680 5676 5671 5666 5661 5656 5652 5647 5643 5639 5634 5630
5703 5703 5705 5708 5709 5711 5712 5714 5715 5716 5717 5718 5718 5718 5718 5718 5717 5717 5715 5714 5712 5710 5707 5704 5701 5697 5694 5690 5685 5681 5676 5671 5667 5662 5657 5653 5648 5644 5639 5635 5631 5626 5622 5618
5696 5697 5698 5701 5701 5702 5704 5706 5707 5708 5708 5709 5709 5710 5710 5708 5708 5707 5705 5703 5701 5699 5696 5693 5689 5686 5682 5677 5673 5668 5663 5659 5654 5650 5645 5641 5636 5632 5628 5623 5619 5614 5610 5606
5689 5690 5691 5693 5693 5695 5698 5699 5698 5699 5699 5700 5700 5701 5700 5699 5698 5697 5695 5693 5691 5688 5685 5682 5678 5674 5670 5665 5661 5656 5652 5647 5643 5638 5634 5630 5625 5621 5616 5612 5607 5602 5598 5594
5684 5685 5688 5686 5687 5689 5690 5690 5690 5691 5691 5692 5692 5691 5691 5690 5689 5688 5686 5683 5681 5678 5675 5672 5668 5664 5660 5655 5651 5646 5642 5637 5633 5628 5624 5619 5614 5609 5604 5600 5595 5590 5586 5582
5680 5682 5681 5680 5681 5682 5683 5683 5683 5684 5684 5684 5684 5684 5683 5682 5681 5679 5677 5675 5672 5669 5666 5662 5659 5655 5651 5646 5642 5637 5633 5628 5623 5618 5613 5608 5603 5598 5593 5588 5584 5580 5576 5572
5675 5676 5676 5676 5676 5677 5677 5677 5677 5677 5677 5678 5677 5677 5676 5675 5673 5671 5669 5667 5664 5661 5658 5655 5651 5647 5643 5638 5634 5629 5624 5619 5614 5608 5603 5598 5593 5588 5583 5578 5574 5570 5567 5564
5672 5672 5672 5672 5672 5672 5672 5672 5671 5671 5671 5671 5671 5670 5669 5668 5666 5665 5663 5660 5658 5655 5651 5648 5644 5640 5635 5631 5626 5621 5616 5610 5604 5598 5593 5588 5583 5578 5574 5570 5567 5564 5561 5559
5668 5668 5668 5668 5667 5667 5666 5666 5666 5666 5666 5665 5665 5664 5663 5662 5661 5659 5657 5655 5652 5649 5646 5642 5638 5634 5629 5624 5618 5613 5607 5601 5595 5589 5584 5579 5575 5571 5567 5564 5561 5559 5556 5555
5664 5664 5663 5663 5662 5662 5661 5661 5661 5661 5660 5660 5660 5659 5658 5657 5656 5654 5652 5650 5648 5645 5641 5637 5633 5628 5623 5617 5611 5604 5598 5592 5587 5581 5577 5573 5569 5566 5563 5560 5558 5556 5554 5552
5660 5660 5659 5659 5658 5658 5657 5656 5656 5656 5656 5656 5655 5655 5654 5654 5652 5651 5649 5647 5644 5641 5637 5633 5628 5622 5616 5610 5603 5597 5591 5585 5580 5576 5572 5569 5566 5563 5561 5558 5556 5555 5553 5552
5657 5657 5656 5656 5655 5654 5654 5653 5653 5653 5653 5653 5653 5652 5652 5651 5650 5649 5647 5645 5642 5638 5634 5628 5623 5616 5610 5603 5597 5591 5586 5581 5577 5573 5570 5567 5565 5562 5560 5558 5557 5555 5554 5553
5655 5654 5654 5653 5653 5652 5651 5651 5651 5651 5651 5651 5651 5651 5650 5650 5649 5647 5645 5643 5639 5635 5630 5624 5618 5611 5605 5599 5593 5587 5583 5579 5575 5572 5569 5567 5565 5563 5561 5560 5558 5557 5556 5555
5654 5653 5652 5651 5651 5650 5650 5650 5650 5650 5650 5650 5650 5650 5650 5649 5648 5647 5644 5641 5637 5632 5627 5621 5614 5608 5602 5596 5591 5586 5582 5578 5575 5572 5570 5568 5567 5565 5564 5562 5561 5560 5559 5559
5652 5652 5651 5650 5650 5650 5650 5650 5649 5649 5650 5650 5650 5650 5650 5649 5648 5646 5644 5640 5635 5630 5625 5619 5613 5607 5601 5596 5590 5586 5582 5579 5576 5574 5572 5571 5570 5568 5567 5565 5564 5564 5563 5563
5651 5651 5650 5650 5650 5650 5650 5650 5650 5650 5650 5651 5651 5651 5651 5650 5649 5647 5643 5639 5635 5630 5624 5619 5613 5608 5602 5597 5592 5588 5584 5582 5579 5577 5576 5574 5573 5572 5571 5570 5569 5568 5568 5568
5651 5650 5649 5649 5649 5650 5650 5650 5651 5651 5652 5652 5652 5652 5652 5651 5650 5647 5644 5640 5635 5630 5625 5620 5615 5610 5605 5600 5596 5592 5589 5586 5583 5582 5580 5579 5578 5576 5575 5575 5574 5574 5574 5574
5650 5650 5649 5650 5650 5650 5651 5651 5652 5652 5653 5654 5654 5654 5654 5653 5651 5648 5645 5641 5637 5632 5628 5623 5618 5613 5609 5605 5601 5597 5594 5591 5589 5587 5585 5584 5583 5582 5581 5580 5579 5579 5579 5579
5649 5649 5649 5650 5651 5651 5652 5652 5653 5654 5655 5655 5656 5656 5655 5654 5653 5650 5648 5644 5640 5636 5631 5627 5622 5618 5614 5610 5606 5603 5600 5597 5595 5593 5591 5590 5589 5588 5586 5585 5585 5584 5584 5584
5649 5649 5650 5650 5651 5652 5652 5653 5654 5655 5656 5657 5658 5658 5658 5657 5655 5653 5650 5647 5643 5639 5636 5631 5627 5623 5619 5616 5612 5609 5606 5604 5601 5599 5597 5596 5595 5594 5593 5591 5590 5590 5589 5589
5648 5649 5650 5650 5651 5652 5653 5654 5655 5657 5658 5659 5660 5660 5660 5659 5658 5656 5653 5651 5647 5644 5640 5637 5633 5629 5626 5622 5619 5616 5613 5611 5608 5606 5604 5603 5601 5600 5599 5597 5596 5595 5594 5594
5648 5649 5649 5650 5651 5652 5653 5655 5656 5658 5659 5660 5661 5662 5662 5662 5661 5659 5657 5655 5652 5649 5646 5643 5639 5636 5632 5629 5626 5623 5620 5618 5615 5613 5611 5609 5608 5606 5605 5603 5602 5601 5600 5599
5647 5648 5649 5650 5652 5653 5654 5656 5657 5659 5660 5662 5663 5664 5664 5664 5664 5663 5661 5659 5657 5654 5652 5649 5646 5643 5640 5637 5634 5631 5628 5626 5623 5621 5619 5617 5615 5613 5612 5610 5609 5607 5606 5605
5646 5648 5649 5650 5652 5653 5654 5656 5658 5660 5661 5663 5664 5665 5666 5666 5666 5666 5665 5663 5662 5660 5658 5655 5653 5650 5648 5645 5642 5640 5637 5634 5632 5629 5627 5625 5623 5621 5619 5617 5616 5614 5613 5612